Regional Weather Roundup
Issued by NWS Green Bay, WI

Home | Current Version | Previous Version | Text Only | Print | Product List | Glossary On
Versions: 1 2 3 4 5 6 7 8 9 10 11 12 13 14 15 16 17 18 19 20 21 22 23 24 25 26 27 28 29 30 31 32 33 34 35 36 37 38 39 40 41 42 43 44 45 46 47 48 49 50
000
ASUS43 KGRB 241401
RWRGRB

NORTH-CENTRAL AND NORTHEAST WISCONSIN REGIONAL WEATHER ROUNDUP
NATIONAL WEATHER SERVICE GREEN BAY WI
900 AM CDT THU MAY 24 2018

WIZ005-009-010>012-018-019-241500-
NORTH CENTRAL WISCONSIN

CITY           SKY/WX    TMP DP  RH WIND       PRES   REMARKS
IRONWOOD       LGT RAIN  64  63  96 SE6       30.12F
MANITOWISH WTR NOT AVBL
ARBOR VITAE    NOT AVBL
EAGLE RIVER    NOT AVBL
LAND O LAKES   NOT AVBL
RHINELANDER    CLOUDY    72  61  68 SW7       30.15F
PHILLIPS       NOT AVBL
ANTIGO         NOT AVBL
TOMAHAWK       NOT AVBL
MERRILL        NOT AVBL
$$

WIZ013-073-241500-
NORTHEAST WISCONSIN

CITY           SKY/WX    TMP DP  RH WIND       PRES   REMARKS
IRON MOUNTAIN  FAIR      76  62  62 S5        30.13F
MARINETTE      FAIR      73  60  63 SW8       30.16F
$$

WIZ017-030-035>037-045-241500-
CENTRAL WISCONSIN

CITY           SKY/WX    TMP DP  RH WIND       PRES   REMARKS
MEDFORD        NOT AVBL
WAUSAU         FAIR      72  60  66 S10       30.13F
MOSINEE        PTSUNNY   70  63  78 S8        30.17S
MARSHFIELD     FAIR      71  61  70 S8        30.13F
WISC RAPIDS    FAIR      73  59  61 S9        30.16S
STEVENS POINT  NOT AVBL
WAUPACA        NOT AVBL
SHAWANO        NOT AVBL
CLINTONVILLE   NOT AVBL
WAUTOMA        FAIR      73  58  59 S6        30.16F
$$

WIZ038-039-048-051-241500-
FOX VALLEY

CITY           SKY/WX    TMP DP  RH WIND       PRES   REMARKS
NWS GREEN BAY  PTSUNNY   72  53  51 SW8       30.17S
APPLETON       MOSUNNY   72  48  43 SW7       30.17S
OSHKOSH        FAIR      71  56  58 S9        30.17F
FOND DU LAC    FAIR      72  54  53 S10       30.18S
$$

WIZ022-050-052-241500-
EAST CENTRAL WISCONSIN

CITY           SKY/WX    TMP DP  RH WIND       PRES   REMARKS
EPHRAIM        NOT AVBL
WASHINGTON ISL NOT AVBL
STURGEON BAY   FAIR      74  54  49 S7        30.17F
MANITOWOC      FAIR      73  49  42 S7        30.19F
SHEBOYGAN      FAIR      72  52  49 S6        30.19S
$$

LMZ563-521-522-541>543-241500-
LAKESHORE

STATION/POSITION TIME  TEMP    WIND        PRES    VSBY  WAVE
                       AIR SEA DIR/SP/G                  HT/PER
                 (UTC) (F)     (DEG/KT/KT) (MB)    (MI)  (FT/S)
SHEBOYGAN LKSHOR 1300   61     170/  8/  9 1022.2F
KEWAUNEE LKSHORE 1330   52     170/  8/  9 1021.5S
NORTHPORT PIER   1340   50     140/  4/  6 1021.3S
N MID LAKE BUOY  1340   42 37  190/ 10/ 12 1021.8S
SISTER BAY LKSHO 1327   75        CALM       N/A
MENOMINEE LKSHOR 1324   64     150/  7/  8 1021.0
$$



USA.gov is the U.S. government's official web portal to all federal, state and local government web resources and services.